1st Responders/1st Detectors/Storm Spotters Weather Summary for Fleming County, KY

Forecast Maps


Reg. NEXRAD Animation


National Fire Danger: Day 1 & 2 Map

Current NWS Watch/Warnings

SPC Convective Day 1 Outlook


Day 2 Outlook

(Click images to enlarge|Page will refresh every 5 minutes)
UK Ag. Weather Center Desktop Severe Weather Service[HERE]
Fleming County, KY Hazardous Weather Outlook Webcast
(9 AM to 9 PM Mon-Fri)
[Fast]
[Dial-up]


UKAWC 1st Detectors/1st Responders Precision Weather Forecast For FLEMING County, Kentucky
(based on the NWS County Digital Forecast)

ISSUED AT 18:00 UTC ON TUESDAY NOV 21 2017
DAY TUESDAY
EDT 3HR 3P 4P 5P 6P 7P
MAX/MIN -- -- -- -- 56°
TEMP 54° 54° 54° 52° 49°
SKY COVER 16% 19% 26% 40% 46%
Clouds
DEW PT 34° 34° 36° 34° 32°
RH 48% 46% 50% 49% 51%
POP 12HR -- -- -- -- --
RAIN/SNOW (liq.equ) -- -- -- -- --
SNOWFALL -- -- -- -- --
WIND SPEED(MPH) 15 15 13 8 8
WIND Gust(MPH) 23 22 17 13 13
WIND DIR SW SW SW SW SW
DEW -- -- -- -- --
HeatIndex 54 54 54 52 49
WIND CHILL -- -- -- -- --
SPRAY COND
DRY COND
LIVESTOCK COLDSTRESS



DAY WEDNESDAY THURSDAY FRIDAY SATURDAY SUNDAY MONDAY
EDT 6HR 8P 9P 10P 11P MIDN 1A 2A 3A 4A 5A 6A 7A 8A 9A 10A 11A NOON 1P 2P 3P 4P 5P 6P 7P 8P 9P 10P 11P MIDN 1A 2A 5A 8A 11A 2P 5P 8P 2A 8A 2P 8P 2A 8A 2P 8P 2A 8A 2P 8P 2A 8A 2P 8P
MAX/MIN -- -- -- -- -- -- -- -- -- -- -- -- 31° -- -- -- -- -- -- -- -- -- -- 40° -- -- -- -- -- -- -- -- 25° -- -- 45° -- -- 29° 52° -- -- 38° 52° -- -- 29° 40° -- -- 23° 40° --
TEMP 49° 47° 47° 45° 45° 43° 43° 40° 38° 36° 34° 32° 31° 31° 34° 36° 36° 38° 40° 40° 40° 40° 36° 34° 32° 31° 31° 29° 29° 29° 27° 25° 25° 34° 43° 45° 36° 31° 29° 50° 43° 41° 40° 52° 45° 36° 29° 40° 34° 29° 25° 40° 34°
SKY COVER 46% 43% 34% 38% 46% 68% 70% 72% 74% 65% 53% 41% 29% 30% 30% 31% 25% 18% 12% 10% 7% 5% 5% 5% 4% 4% 4% 3% 6% 10% 13% 16% 47% 31% 25% 25% 22% 9% 6% 2% 7% 49% 70% 31% 24% 28% 29% 31% 33% 32% 13% 18% 23%
Clouds
DEW PT 34° 34° 34° 34° 34° 34° 34° 32° 31° 29° 27° 25° 25° 25° 25° 25° 25° 25° 25° 25° 23° 23° 23° 23° 23° 23° 23° 23° 23° 22° 22° 22° 22° 25° 25° 25° 25° 25° 25° 31° 31° 34° 36° 38° 34° 29° 25° 25° 23° 22° 20° 23° 25°
RH 55% 57% 60% 63% 64% 67% 72% 72% 73% 75% 72% 74% 77% 75% 69% 64% 61% 57% 54% 52% 50% 52% 59% 66% 69% 71% 74% 78% 81% 77% 81% 84% 84% 66% 48% 45% 63% 78% 84% 45% 64% 73% 85% 56% 62% 75% 84% 54% 63% 71% 81% 52% 66%
POP 12HR 0% -- -- -- -- -- -- -- -- -- -- -- 6% -- -- -- -- -- -- -- -- -- -- -- 0% -- -- -- -- -- -- -- 0% -- -- -- 2% -- 2% -- 3% -- 11% -- 10% -- 3% -- 3% -- 2% -- 2%
RAIN/SNOW (liq.equ) 0.00in -- -- -- -- -- 0.00in -- -- -- -- -- 0.00in -- -- -- -- -- 0.00in -- -- -- -- -- 0.00in -- -- -- -- -- 0.00in -- 0.00in -- 0.00in -- 0.00in -- -- -- -- -- -- -- -- -- -- -- -- -- -- -- --
SNOWFALL 0in -- -- -- -- -- 0in -- -- -- -- -- 0in -- -- -- -- -- 0in -- -- -- -- -- 0in -- -- -- -- -- 0in -- 0in -- 0in -- 0in -- -- -- -- -- -- -- -- -- -- -- -- -- -- -- --
WIND SPEED(MPH) 7 7 7 7 8 8 9 9 9 8 7 7 6 7 7 7 7 7 7 7 7 7 6 6 5 5 2 2 2 1 1 2 1 5 5 5 2 2 5 7 7 10 9 13 9 7 7 9 7 6 6 7 6
WIND DIR SW SW W W W NW NW NW N N N N N N N N N N N N N N N N N N NE NE NE NE NE E SE S SW SW SW SW S SW S SW SW W W NW NW NW NW NW NW SW SW
HeatIndex 49 47 47 45 40 38 37 34 32 30 28 26 25 25 27 29 30 34 35 36 36 35 32 28 28 27 27 26 25 29 27 21 25 31 40 42 34 27 23 50 38 35 33 52 45 30 22 33 28 23 18 35 29
WIND CHILL -- -- -- 41° 41° 38° 38° 34° 32° 30° 28° 26° 25° 25° 28° 30° 30° 33° 35° 35° 35° 35° 31° 29° 28° 26° -- -- -- -- -- -- -- 30° 40° 43° -- -- 24° -- 39° 35° 34° -- 40° 30° 22° 34° 28° 23° 18° 35° 29°
SPRAY COND
DRY COND
LIVESTOCK COLDSTRESS

Click on individual weather variable above in left-hand column (ie., TEMP, RH, QPF 12HR) to view state forecast maps






NWS 48 Hr. Forecast Maps,

Regional Hourly Observations For FLEMING County, Kentucky
Issued at 200 PM EST TUE NOV 21 2017
NORTHEAST KENTUCKY
  
CITY           SKY/WX    TMP DP  RH WIND       PRES   REMARKS
LEXINGTON      SUNNY     58  31  35 SW17G26   29.97F                  
COVINGTON      PTSUNNY   55  32  41 SW12G24   29.92F                  
FRANKFORT      SUNNY     58  29  33 SW12G22   29.95F                  


Current NOWCAST not available:
Nowcasts are not issued routinely during fair weather. Only when
precipitation or other significant weather is occuring in this county will these
forecasts be issued. Currently, there is no short term forecast in effect.


Fire Weather Forecast For FLEMING County, KY
Provided by the National Weather Service:

Issued at: Tue Nov 21 13:05:01 EST 2017

323 AM EST Tue Nov 21 2017

.TODAY...
Sky/weather.........Sunny. 
Max Temperature.....58-63. 
   24 hr trend......11 degrees warmer. 
Min Humidity........37-47 percent. 
   24 hr trend......5 percent wetter. 
Wind (20 ft)........Southwest winds around 15 mph with gusts up to 
                    25 mph. 
LAL.................1. 
Haines Index........5 or moderate potential for large plume 
                    dominated fire growth. 
Mixing Height.......2900 ft agl. 
Transport Winds.....Southwest around 10 mph increasing to around 20 
                    mph in the afternoon. 
Dispersion Index....55. 
Vent Rate...........Good (55300 knot-ft). 
ADI.................39 increasing to 62 in the afternoon. 
LVORI...............3. 
Prob of precip......0 percent. 
QPF (inches)........None. 

.TONIGHT...
Sky/weather.........Partly cloudy then becoming mostly cloudy. 
Min Temperature.....34-39. 
   24 hr trend......7 degrees warmer. 
Max Humidity........79 percent. 
   24 hr trend......12 percent drier. 
Wind (20 ft)........West winds 5 to 10 mph shifting to the 
                    northwest late. 
LAL.................1. 
Haines Index........3 or very low potential for large plume 
                    dominated fire growth. 
ADI.................12. 
LVORI...............4. 
Prob of precip......0 percent. 
QPF (inches)........None. 

.WEDNESDAY...
Sky/weather.........Mostly sunny. 
Max Temperature.....Around 43. 
   24 hr trend......18 degrees cooler. 
Min Humidity........47 percent. 
   24 hr trend......7 percent wetter. 
Wind (20 ft)........North winds around 5 mph. 
LAL.................1. 
Haines Index........4 or low potential for large plume dominated 
                    fire growth. 
Mixing Height.......3100 ft agl. 
Transport Winds.....North 5 to 10 mph. 
Dispersion Index....29. 
Vent Rate...........Poor (28600 knot-ft). 
ADI.................30. 
LVORI...............3. 
Prob of precip......0 percent. 
QPF (inches)........None. 


SPC's Fire Weather Web Tool (Excellent!), SPC's Fire Weather Outlooks, NWS Fire Weather WEB, Fire Danger Class Map,
Keetch-Byram Drought Index, ROMAN Web, Haines Index ,
WFAS's 10-hr Dead Fuel Moist., WFAS's 100-hr Dead Fuel Moist., Probablity of Ignition, Visual blackness Map, Palmer Drought Index, HPC's Rainfall Forecast Maps


Hazardous Weather Outlook For FLEMING County, Kentucky
243 AM EST Tue Nov 21 2017

 DAY ONE  Today and Tonight.

No hazardous weather is expected at this time.  

 DAYS TWO THROUGH SEVEN  Wednesday through Monday.

No hazardous weather is expected at this time.

 SPOTTER INFORMATION STATEMENT  

Spotter activation is not anticipated.

Latest FLEMING County, Kentucky Watches, Warnings and Advisories.
Additional Drought Info.: UKAWC Drought Page, Kentucky Drought Watch


7-Day Forecast For FLEMING County, KY

TODAY
Sunny. Highs in the upper 50s. Southwest winds 10 to 15 mph with gusts to around 25 mph.

TONIGHT
Partly cloudy in the evening then becoming mostly cloudy. Lows in the lower 30s. West winds around 10 mph shifting to the north late.

WEDNESDAY
Sunny. Highs in the lower 40s. Light winds.

WEDNESDAY NIGHT
Cold. Mostly clear. Lows in the mid 20s. Light winds.

THANKSGIVING DAY
Mostly sunny. Highs in the mid 40s. Light winds.

THURSDAY NIGHT
Cold. Mostly clear. Lows in the upper 20s.

FRIDAY
Sunny. Highs in the lower 50s.

FRIDAY NIGHT
Partly cloudy. Lows in the upper 30s.

SATURDAY
Mostly sunny. Highs in the mid 50s.

SATURDAY NIGHT
Cold. Partly cloudy. Lows around 30.

SUNDAY
Mostly sunny. Highs around 40.

SUNDAY NIGHT
Cold. Partly cloudy. Lows in the lower 20s.

MONDAY
Sunny. Highs in the lower 40s.

Ag Weather Center, Department of Biosystems & Agricultural Engineering, University of Kentucky